Theta_e
312 313 310 308 306 307 308 308 309 308 306 303 302 304 305 304 304 304 305 306 311 310 308 309 314 311 313 317 319 320 323 326 327 329 330 333 334 332 332 331 334 336 336 343 345
313 313 312 312 308 306 307 308 309 310 308 306 302 303 304 304 303 304 307 308 309 309 310 310 316 313 315 318 319 321 322 323 326 328 329 330 331 330 329 330 330 333 331 334 341
311 313 313 312 312 309 306 308 309 310 311 309 304 302 303 302 312 316 319 316 309 308 306 312 317 315 317 318 319 320 322 322 322 325 326 328 329 328 328 329 328 331 332 330 335
309 310 312 313 312 312 308 306 308 309 311 312 308 302 302 302 324 325 319 312 312 306 307 311 316 316 318 319 319 320 321 321 322 322 325 326 328 328 328 328 327 328 328 328 328
310 310 311 311 312 312 312 308 307 308 311 312 312 303 301 316 316 320 318 311 311 306 310 315 317 317 318 319 320 321 321 322 321 322 323 323 325 327 326 327 326 325 325 325 325
309 310 310 310 310 311 312 311 307 308 310 311 311 309 304 315 321 321 317 310 311 310 314 317 317 318 319 320 321 322 321 322 322 322 322 322 322 322 322 322 322 323 323 324 324
308 308 309 310 310 311 311 312 308 308 310 310 310 310 313 314 317 319 316 314 314 316 317 316 316 317 318 320 320 321 322 322 322 322 322 321 321 321 321 321 321 321 321 322 323
307 308 307 308 309 310 311 312 311 308 310 311 311 311 315 315 314 318 316 317 318 316 316 316 317 317 318 319 320 320 321 321 322 322 322 321 321 322 321 321 321 321 321 321 321
307 307 308 309 309 310 311 311 312 308 312 314 310 311 317 314 314 319 318 316 315 316 317 317 316 317 318 319 320 320 319 320 320 322 322 321 320 322 321 321 322 321 321 321 321
306 309 309 309 310 311 312 311 311 309 316 314 314 319 318 318 315 319 318 317 315 316 318 317 319 320 319 319 320 320 320 320 320 322 322 321 321 321 321 322 322 322 322 322 321
309 310 311 311 311 311 311 314 322 322 320 320 320 315 316 315 317 318 318 317 318 319 320 318 319 320 320 320 320 321 321 322 322 322 322 322 321 321 322 322 321 321 322 322 322
312 312 310 311 312 311 311 314 318 319 320 322 321 320 317 318 319 319 318 317 319 321 320 321 320 320 320 320 320 320 320 321 322 322 322 321 321 321 322 322 322 322 322 322 322
312 311 310 312 312 312 313 315 315 317 319 320 321 321 319 317 319 319 318 318 320 321 321 319 321 320 320 320 320 320 320 320 321 321 321 321 321 321 322 322 321 321 322 322 322
311 311 313 313 316 318 318 317 317 317 321 324 322 321 319 318 318 319 319 319 319 321 321 320 321 320 319 318 319 319 319 319 319 319 319 321 320 323 323 323 323 322 322 321 322
312 311 314 312 318 319 318 318 318 319 332 326 322 321 319 318 320 319 320 319 319 320 319 320 320 319 319 319 319 318 319 319 320 319 320 320 320 321 323 322 324 324 322 321 321
312 312 314 319 315 318 317 317 319 324 331 325 321 320 320 318 320 320 318 318 318 319 319 319 319 319 319 319 319 319 319 319 320 320 321 321 321 321 322 324 324 324 322 322 321
311 314 313 315 321 317 316 318 327 329 326 325 323 321 321 320 320 320 320 318 317 318 318 318 319 319 319 319 319 318 319 319 321 321 321 321 321 323 325 325 324 324 322 322 323
311 317 317 316 318 317 318 322 330 325 323 323 322 323 322 322 322 321 321 321 319 318 320 323 323 321 320 319 319 320 320 320 322 323 323 324 326 326 327 326 324 323 323 323 323
311 320 319 318 316 318 322 327 327 323 321 321 320 321 321 324 324 323 322 322 322 321 322 322 322 322 322 322 320 320 321 321 322 322 324 325 325 327 327 326 325 323 322 322 323
312 321 321 317 318 320 323 325 322 321 320 320 322 322 322 324 325 325 326 325 324 322 323 323 324 323 323 323 323 321 321 322 322 325 326 325 325 325 329 326 324 324 323 323 323
317 322 320 319 319 321 325 325 323 320 319 320 321 321 322 322 322 323 325 324 323 322 322 323 323 324 322 323 324 323 321 322 323 324 331 330 328 326 326 327 327 325 323 323 322
317 323 319 319 323 325 324 323 319 319 319 320 320 320 321 321 322 321 322 323 321 320 320 321 322 324 322 321 322 324 324 325 330 328 327 328 328 326 325 324 324 323 323 322 320
316 318 318 318 325 326 323 320 319 320 319 319 319 319 320 320 322 322 321 320 318 320 321 321 323 323 321 321 321 321 323 325 326 328 329 331 328 324 323 323 322 322 322 321 318
316 320 319 318 318 319 320 319 319 318 317 317 318 317 318 319 319 319 319 319 318 318 316 317 320 321 323 321 321 322 321 321 325 328 327 326 324 323 324 322 321 321 320 319 317
317 318 317 320 320 319 318 318 318 318 316 315 316 317 316 316 317 318 318 318 318 317 316 318 319 318 318 318 318 318 319 320 321 323 325 324 322 322 321 321 320 320 319 318 317
314 315 315 315 317 318 315 317 317 317 315 315 315 314 315 315 315 316 315 315 317 316 316 317 317 317 318 317 317 318 318 318 318 318 319 319 319 318 318 317 318 318 318 317 316
313 314 315 315 317 317 317 316 315 314 313 313 313 313 314 313 313 313 313 313 314 316 315 315 317 318 319 317 319 321 318 317 317 317 317 318 318 318 317 319 318 317 316 316 315
Wind_Speed
24 25 23 18 15 12 12 13 13 14 15 15 15 15 17 18 17 16 28 21 7 17 10 12 15 20 22 25 26 27 16 17 26 24 20 9 10 18 9 7 7 12 15 11 12
23 24 25 26 18 16 14 14 13 13 13 14 13 12 13 16 19 24 20 19 18 16 16 17 17 21 26 26 27 21 17 26 23 22 19 20 15 12 14 11 13 5 10 4 10
20 22 24 25 26 18 15 15 14 13 13 14 13 11 10 14 15 10 7 10 19 18 21 18 16 22 25 24 28 28 20 19 28 31 30 17 10 16 19 10 13 15 13 10 9
19 21 23 25 25 25 18 15 15 14 13 12 12 10 8 8 4 3 10 6 14 17 17 19 19 26 21 22 27 23 26 28 28 30 24 11 18 14 22 13 15 9 8 2 3
21 22 23 24 25 25 25 17 16 14 13 12 11 10 7 9 18 10 10 8 13 18 19 18 22 24 21 21 25 21 21 24 27 32 11 10 16 15 17 13 17 20 11 8 9
23 25 25 25 25 24 25 21 17 15 14 13 11 9 8 13 5 10 5 6 11 17 16 20 16 20 20 23 20 18 21 20 22 24 22 13 16 18 25 22 16 20 18 16 16
25 26 27 28 27 25 24 25 17 15 14 14 12 9 12 23 3 4 6 7 11 13 13 16 18 17 22 16 24 15 9 13 20 17 18 19 20 22 24 24 25 27 18 24 22
27 28 29 28 29 28 24 23 18 15 14 14 9 5 12 4 16 11 8 9 10 12 12 11 13 14 14 17 13 15 14 16 17 19 17 19 20 19 26 25 26 17 20 19 20
27 28 29 30 28 27 24 21 18 14 13 9 6 6 11 8 12 11 10 10 9 11 11 8 12 16 16 13 14 13 15 20 19 20 19 21 19 17 23 29 27 21 20 22 22
27 27 28 30 29 27 22 18 15 12 8 6 9 10 18 14 11 13 11 10 10 10 10 10 10 12 14 13 14 13 17 18 19 18 15 16 18 15 20 7 9 13 17 23 17
27 29 32 35 34 27 20 9 4 3 13 12 11 11 1 10 11 14 14 10 11 12 11 15 11 15 18 18 18 20 18 15 15 18 18 16 15 14 17 16 16 20 20 19 18
28 31 38 39 27 18 15 10 14 11 14 24 25 20 18 5 8 12 15 13 15 13 14 13 15 16 18 18 19 20 20 14 16 14 8 9 12 14 15 19 20 20 20 20 19
30 34 39 29 19 11 14 17 7 12 9 18 26 23 18 11 13 15 19 18 13 14 16 16 18 20 16 15 15 11 14 13 18 16 15 16 17 16 20 21 24 22 22 21 23
30 36 29 20 4 4 7 6 8 6 5 7 8 9 18 14 15 19 20 18 16 18 15 15 19 12 9 13 15 15 16 17 17 15 13 12 14 17 21 20 19 22 20 19 22
30 34 19 11 5 2 5 1 2 2 4 6 11 11 15 13 3 17 13 17 17 17 10 15 16 13 16 16 15 16 16 16 16 13 16 19 13 16 16 14 16 17 25 22 18
30 25 13 8 5 2 7 3 2 6 4 6 9 10 16 18 11 12 12 11 15 16 17 17 24 13 9 13 14 13 15 15 13 11 14 18 17 17 16 18 18 16 23 17 16
27 14 10 6 4 7 5 5 5 6 7 3 4 13 16 15 17 13 16 14 11 10 13 16 20 14 12 11 13 15 13 10 12 13 14 20 16 15 16 19 19 11 12 9 12
22 7 8 6 9 8 4 7 7 7 8 4 5 5 9 9 11 16 15 15 18 16 11 12 13 15 15 16 13 13 12 12 16 14 15 14 16 4 12 7 7 8 18 14 9
19 6 7 5 6 4 10 6 5 9 11 10 12 11 14 9 7 7 14 14 8 14 15 14 20 15 15 18 15 18 17 16 16 18 16 17 23 12 8 12 11 15 11 11 12
19 5 5 1 4 6 10 10 3 7 10 11 12 11 7 4 2 4 3 7 7 6 7 8 10 8 13 11 18 16 9 9 9 17 21 15 18 10 10 5 12 8 2 11 11
10 7 2 2 3 11 8 5 6 11 6 8 13 13 15 10 7 9 5 7 8 7 7 9 7 11 16 15 15 13 13 12 12 13 4 6 6 7 9 12 7 2 3 5 1
6 4 2 1 8 9 4 5 4 6 9 8 7 10 11 13 15 10 7 8 8 11 4 5 5 10 17 18 16 18 20 17 9 14 12 13 15 12 1 10 14 14 8 6 11
10 16 2 2 3 1 8 5 4 4 9 9 9 8 9 13 11 10 9 13 2 3 4 3 3 8 11 15 22 14 13 14 12 17 20 13 9 10 12 14 13 17 17 16 14
8 4 4 3 3 8 11 9 4 8 6 8 10 11 9 12 9 7 12 2 4 5 7 2 7 14 12 16 10 8 11 16 8 5 10 17 20 15 6 6 8 17 22 19 16
6 4 3 4 7 7 7 11 8 7 7 11 6 8 7 5 12 14 7 13 5 6 1 3 8 15 19 23 23 24 20 18 18 15 11 14 17 14 12 11 21 27 21 17 13
7 6 12 15 4 7 2 7 6 7 6 10 7 10 10 8 10 16 15 9 8 3 5 3 5 13 18 17 21 23 22 20 21 21 23 22 24 18 18 15 7 5 9 12 11
12 9 9 10 6 7 3 6 7 7 6 4 6 9 11 9 9 14 18 19 14 13 7 2 3 5 10 15 15 15 17 18 18 20 15 17 17 11 6 2 6 9 14 18 17
Wind_Direction
15 15 7 349 338 325 318 316 314 315 316 314 311 305 304 298 287 278 262 246 240 258 245 248 230 220 223 230 223 221 233 237 242 235 252 213 236 230 230 329 205 227 93 116 133
9 10 8 7 344 328 318 315 315 317 321 323 321 312 307 298 292 276 284 254 239 238 235 234 220 209 218 224 223 224 227 237 241 253 262 269 214 207 261 253 272 242 92 141 168
358 359 0 2 2 338 320 311 308 312 320 327 329 320 313 301 308 272 290 247 238 233 227 222 227 209 219 217 221 222 237 234 248 248 254 293 208 189 237 201 235 242 206 182 197
345 346 349 352 354 354 329 310 304 304 312 324 330 318 307 297 264 320 327 281 222 217 220 240 238 211 220 223 222 226 223 243 258 246 252 255 280 185 230 218 232 252 279 10 97
336 337 339 341 342 345 346 316 302 296 302 313 319 312 299 257 261 268 314 275 220 198 205 228 225 216 217 226 227 227 233 233 240 259 262 265 252 270 277 241 252 267 271 251 254
329 330 331 333 333 336 335 332 302 293 292 301 306 302 281 262 297 301 261 234 200 195 200 234 221 222 223 233 237 228 232 236 253 246 256 248 260 251 251 262 259 253 260 245 243
326 326 326 325 325 327 329 331 305 293 290 295 293 289 267 242 225 288 211 183 184 201 208 226 226 227 234 253 247 244 232 238 248 244 242 236 240 239 242 241 240 243 246 248 241
324 323 322 321 318 316 320 321 309 287 290 293 271 260 254 313 252 239 218 207 209 217 231 232 243 264 247 238 251 243 254 246 238 235 235 231 245 234 231 229 236 224 245 250 236
323 321 319 317 316 313 311 313 306 285 288 273 242 223 256 210 217 215 208 212 211 214 220 243 229 235 240 243 235 227 235 233 250 230 211 218 239 248 262 214 221 218 233 244 237
322 320 318 314 312 309 304 305 299 282 279 230 230 260 253 236 207 204 204 203 192 203 213 223 224 226 232 221 231 223 218 240 247 232 195 226 231 237 270 180 194 218 243 246 229
324 322 317 311 307 302 296 315 279 213 215 214 203 235 60 230 187 207 201 217 207 213 222 205 219 211 220 226 240 259 242 278 225 243 199 217 249 253 241 217 216 228 221 251 243
326 324 320 317 308 283 263 221 233 323 299 246 245 251 262 206 198 215 197 208 219 231 216 232 227 238 228 238 228 250 272 270 287 298 276 236 240 249 256 265 228 225 220 222 236
331 328 324 324 305 269 237 237 256 300 292 284 219 225 234 213 241 214 202 213 228 230 243 231 231 209 248 245 248 262 274 261 261 272 256 253 256 264 261 247 246 238 235 218 230
331 333 329 328 326 6 249 305 251 264 274 185 172 218 208 234 246 240 206 214 230 249 229 253 245 263 226 257 270 240 245 247 267 268 262 236 254 243 230 230 233 236 222 232 233
334 333 335 342 281 14 86 125 211 228 274 251 136 149 179 192 31 208 229 206 242 241 248 262 242 253 262 250 247 250 253 259 241 246 266 262 268 271 286 268 223 218 216 215 229
337 330 328 15 310 282 324 280 238 235 248 178 140 184 160 202 217 157 214 224 240 252 271 276 280 311 294 274 235 266 253 263 271 264 257 253 256 260 259 249 228 226 199 198 223
339 330 328 254 251 306 275 247 240 239 209 191 174 161 184 193 226 171 189 193 224 240 245 264 267 252 264 271 273 226 241 254 246 239 249 244 242 243 251 247 243 174 173 160 113
340 351 355 343 301 283 260 238 253 258 62 63 302 272 229 221 226 203 202 212 200 227 230 267 267 253 218 237 253 263 228 241 251 258 267 267 249 302 350 2 114 105 112 114 119
338 322 315 346 266 244 263 260 295 17 16 354 325 286 263 203 275 267 227 238 235 221 256 283 256 259 269 283 238 247 263 280 293 297 291 285 281 254 258 226 212 187 167 156 136
332 310 215 310 249 268 263 245 329 46 4 324 299 313 319 235 233 326 26 354 324 34 3 276 309 304 291 283 271 264 253 239 261 265 267 265 268 282 26 54 345 343 237 134 152
318 265 101 173 246 256 255 286 296 38 359 340 334 322 316 316 261 288 244 8 331 288 262 285 269 272 297 284 264 266 252 250 241 258 253 281 280 21 3 13 9 7 296 89 340
308 277 61 240 249 251 240 249 19 332 328 287 288 299 303 330 318 288 289 211 345 329 271 20 312 278 278 279 262 250 265 256 245 253 255 264 271 57 358 311 9 355 281 296 290
308 295 94 154 260 136 270 348 155 325 348 330 312 324 323 314 316 304 325 125 33 221 349 30 238 287 277 249 234 251 305 286 265 244 243 243 246 108 36 340 349 328 304 297 314
300 296 160 237 333 340 7 313 329 95 331 353 327 315 324 309 280 280 291 16 321 121 72 352 265 258 263 282 295 249 283 295 276 250 267 261 281 277 66 275 307 292 288 283 275
260 28 358 322 43 337 327 311 301 333 14 337 312 61 359 309 316 285 360 314 248 157 258 258 267 274 272 273 273 277 268 251 249 253 249 269 272 267 271 196 236 237 244 259 278
322 346 342 287 309 295 222 311 348 350 331 305 294 337 323 292 286 299 301 298 297 203 261 166 276 284 280 269 259 261 263 266 265 259 259 268 272 288 283 278 304 293 271 269 275
356 312 279 294 277 263 33 347 315 316 319 37 338 308 293 306 315 284 280 285 258 277 287 215 290 295 270 264 266 259 253 256 259 256 254 263 276 274 248 62 273 282 283 287 290